Location: Colebrook
(42.0017°N, 73.0973°W)
Time: 15:30:16
(UTC-05:00)

Vanguard 2 - Pass Details

Date: 01 November 2021
Orbit: 554 x 2936 km, 32.9° (Epoch: 04 December)

Event Time Altitude Azimuth Distance (km) Brightness Sun altitude
Exits shadow 04:04:14 34° 163° (SSE) 2,273 9.8 -37.6°
Drops below altitude 10° 04:08:49 10° 134° (SE) 3,172 11.0 -36.8°
Sets 04:11:15 0° 127° (SE) 3,874 11.6 -36.3°
